www.pogodaiklimat.ru

Погода и климат >> Архив погоды >> Австрия >> Рорбах


ПОГОДА в Рорбахе

  • Прогноз погоды в Рорбахе
  • Монитор погоды в Рорбахе

АРХИВ ПОГОДЫ в Рорбахе

Время (UTC), дата Ветер
(напр.,м/с)
 
Видим.   Явления Облачность Т
(С)
Тd
(С)
f
(%)
Тe
(С)
Тes
(С)
Комфортность P
(гПа)
Po
(гПа)
Тmin
(С)
Tmax
(С)
R
(мм)
R24
(мм)
S
(см)
01 16.08 СЗ 3 н/о осадки н/о +14.6 +13.2 91 +14 +14 1017.5 948.2 0.4
02 16.08 З 2 н/о в посл. час осадки н/о +14.4 +13.0 91 +14 +14 1017.8 948.4 0.1
03 16.08 З 2 н/о {осадки} н/о +14.2 +12.7 91 +14 +14 1018.1 948.6 0.5
04 16.08 З 2 н/о н/о +14.1 +12.4 89 +14 +14 1018.3 948.8 0.0
05 16.08 З 2 н/о н/о +14.1 +12.3 89 +14 +14 1018.6 949.0 0.0
06 16.08 З 2 н/о {осадки} н/о +14.2 +12.3 88 +14 +14 1018.8 949.3 +14.0 +17.8 0.5
07 16.08 З 2 н/о н/о +14.4 +12.3 87 +14 +14 1019.3 949.8 0.0
08 16.08 З 3 н/о н/о +15.1 +12.5 84 +14 +14 1019.3 949.9 0.0
09 16.08 З 3 н/о в посл. час осадки н/о +17.1 +12.7 75 +17 +17 1018.9 950.0 0.1
10 16.08 З 3 н/о н/о +18.4 +12.0 66 +19 +19 1018.4 949.8
11 16.08 З 3 н/о н/о +17.4 +12.1 71 +17 +17 1018.5 949.7 0.0
12 16.08 ЮЗ 4 н/о {осадки} н/о +19.4 +12.7 65 +21 +21 комфорт 1017.8 949.5 0.1
13 16.08 СЗ 4 н/о н/о +19.9 +11.1 57 +21 +21 комфорт 1017.3 949.1
14 16.08 З 3 н/о н/о +19.4 +10.8 57 +21 +21 комфорт 1017.2 948.9
15 16.08 СЗ 3 н/о н/о +20.0 +10.6 55 +22 +22 комфорт 1016.6 948.5
16 16.08 З 4 н/о н/о +19.9 +8.5 48 +21 +21 комфорт 1016.7 948.5
17 16.08 СЗ 3 н/о н/о +19.6 +8.3 48 +21 +21 комфорт 1016.4 948.2
18 16.08 СЗ 1 н/о н/о +18.0 +8.7 55 +19 +19 1017.0 948.4 +14.2 +20.9 0.1
19 16.08 СВ 1 н/о н/о +15.8 +9.2 65 +17 +17 1017.8 948.6
20 16.08 штиль 0 н/о н/о +13.9 +9.6 75 +14 +14 1018.6 948.9
21 16.08 ЮЗ 1 н/о н/о +12.6 +9.5 81 +13 +13 1018.7 948.7
22 16.08 штиль 0 н/о н/о +12.1 +9.5 84 +12 +12 1018.7 948.6
23 16.08 штиль 0 н/о н/о +11.2 +9.2 87 +11 +11 1018.7 948.4
00 17.08 штиль 0 н/о н/о +10.7 +8.9 89 +10 +10 1018.5 948.1
01 17.08 штиль 0 н/о н/о +10.0 +8.7 92 +9 +9 1018.3 947.7
02 17.08 штиль 0 н/о н/о +9.3 +8.3 93 +8 +8 1018.1 947.4
03 17.08 штиль 0 н/о н/о +9.3 +8.2 93 +8 +8 1018.1 947.4
04 17.08 штиль 0 н/о н/о +8.7 +7.9 95 +8 +8 1018.4 947.5
05 17.08 штиль 0 н/о н/о +9.1 +8.1 93 +8 +8 1018.3 947.5
06 17.08 штиль 0 н/о н/о +10.3 +8.8 90 +10 +10 1017.9 947.4 +8.6 +18.5
07 17.08 ЮЗ 1 н/о н/о +13.0 +11.1 88 +13 +13 1017.2 947.5
08 17.08 ЮВ 1 н/о н/о +15.5 +12.1 80 +16 +16 1016.5 947.4
09 17.08 Ю 1 н/о н/о +19.0 +11.9 63 +21 +21 комфорт 1015.8 947.5
10 17.08 Ю 3 н/о н/о +19.0 +11.0 60 +20 +20 1015.6 947.3
11 17.08 ЮЗ 2 н/о н/о +20.5 +9.1 48 +23 +23 комфорт 1014.9 947.0
12 17.08 Ю 2 н/о н/о +19.8 +11.1 57 +22 +22 комфорт 1015.0 947.0
13 17.08 Ю 1 н/о н/о +21.1 +11.5 54 +23 +23 комфорт 1014.3 946.6
14 17.08 Ю 2 н/о н/о +21.9 +12.3 54 +24 +24 комфорт 1014.0 946.5
15 17.08 ЮЗ 2 н/о н/о +22.2 +11.5 51 +24 +24 комфорт 1013.4 946.0
16 17.08 З 1 н/о н/о +22.1 +12.6 55 +25 +25 комфорт 1013.4 946.0
17 17.08 ЮВ 2 н/о н/о +21.0 +13.7 63 +24 +24 комфорт 1013.2 945.6
18 17.08 ЮВ 1 н/о н/о +20.3 +13.5 65 +24 +24 комфорт 1013.4 945.6 +10.1 +22.4 0.0
19 17.08 штиль 0 н/о н/о +18.7 +13.7 73 +19 +19 1013.7 945.6
20 17.08 штиль 0 н/о н/о +18.5 +14.3 77 +19 +19 1013.9 945.7
21 17.08 штиль 0 н/о н/о +17.5 +14.4 82 +17 +17 1013.7 945.3
22 17.08 С 1 н/о н/о +17.9 +13.9 77 +19 +19 1013.8 945.5
23 17.08 штиль 0 н/о н/о +17.0 +14.0 82 +17 +17 1014.1 945.6
00 18.08 З 2 н/о н/о +17.9 +12.9 73 +18 +18 1013.8 945.5 0.0
01 18.08 штиль 0 н/о н/о +17.2 +13.2 77 +17 +17 1013.7 945.2
02 18.08 В 1 н/о н/о +16.9 +13.2 79 +18 +18 1013.7 945.1
03 18.08 штиль 0 н/о н/о +16.2 +13.1 82 +16 +16 1013.1 944.4
04 18.08 штиль 0 н/о н/о +16.0 +13.2 83 +16 +16 1013.0 944.3
05 18.08 СВ 1 н/о н/о +15.8 +13.1 84 +16 +16 1013.1 944.3
06 18.08 ЮЗ 1 н/о н/о +16.0 +13.7 86 +17 +17 1013.3 944.6 +15.6 +20.5 0.0
07 18.08 штиль 0 н/о н/о +17.4 +14.0 80 +17 +17 1012.9 944.5
08 18.08 ЮВ 1 н/о н/о +20.9 +13.0 61 +25 +25 комфорт 1012.3 944.7
09 18.08 Ю 1 н/о н/о +23.5 +15.3 60 +26 +26 жарко 1011.5 944.6
10 18.08 Ю 2 н/о н/о +25.0 +14.4 52 +28 +28 жарко 1011.1 944.5
11 18.08 Ю 2 н/о н/о +26.7 +14.7 48 +29 +29 жарко 1010.5 944.3
12 18.08 ЮЗ 1 н/о н/о +28.3 +15.0 44 +31 +31 душно 1010.1 944.3
13 18.08 Ю 2 н/о н/о +28.8 +15.1 43 +31 +31 жарко 1009.8 944.1
14 18.08 ЮЗ 1 н/о н/о +29.3 +14.1 39 +31 +31 жарко 1009.4 943.8
15 18.08 Ю 2 н/о н/о +29.1 +15.1 43 +32 +32 душно 1009.3 943.7
16 18.08 Ю 2 н/о н/о +28.7 +13.4 39 +30 +30 жарко 1009.2 943.5
17 18.08 ЮВ 2 н/о н/о +28.2 +13.5 40 +30 +30 жарко 1009.2 943.4
18 18.08 ЮВ 1 н/о н/о +26.4 +14.8 49 +29 +29 жарко 1009.1 943.0 +16.0 +29.5
19 18.08 штиль 0 н/о н/о +23.8 +14.5 56 +26 +26 жарко 1009.6 942.9
20 18.08 штиль 0 н/о н/о +22.8 +14.6 60 +26 +26 жарко 1009.6 942.7
21 18.08 С 1 н/о н/о +21.6 +13.1 58 +24 +24 комфорт 1010.2 942.9
22 18.08 В 2 н/о н/о +22.2 +13.1 56 +25 +25 комфорт 1009.8 942.7
23 18.08 С 1 н/о н/о +20.1 +13.4 65 +23 +23 комфорт 1010.5 942.9
00 19.08 штиль 0 н/о н/о +19.3 +13.5 69 +21 +21 комфорт 1010.9 943.1
01 19.08 С 1 н/о н/о +19.9 +12.7 63 +23 +23 комфорт 1011.8 944.0
02 19.08 С 1 н/о н/о +19.3 +13.0 67 +22 +22 комфорт 1012.7 944.7
03 19.08 СЗ 4 н/о осадки н/о +19.4 +15.0 76 +21 +21 комфорт 1014.8 946.8 0.1
04 19.08 СЗ 4 н/о в посл. час осадки н/о +19.4 +13.5 69 +21 +21 комфорт 1016.3 948.1 0.0
05 19.08 З 1 н/о н/о +18.6 +14.5 77 +20 +20 1016.9 948.5
06 19.08 З 1 н/о {осадки} н/о +17.7 +14.6 82 +19 +19 1017.4 948.8 +17.7 +26.8 0.1
07 19.08 З 3 н/о н/о +17.6 +13.9 79 +18 +18 1018.3 949.6 0.0
08 19.08 Ю 1 н/о н/о +18.7 +14.4 76 +21 +21 комфорт 1017.6 949.2
09 19.08 ЮЗ 2 н/о н/о +20.4 +14.8 70 +24 +24 комфорт 1017.7 949.7 0.0
10 19.08 З 2 н/о н/о +22.2 +14.1 60 +25 +25 комфорт 1017.3 949.7
11 19.08 З 2 н/о н/о +21.5 +14.4 64 +24 +24 комфорт 1017.6 949.8
12 19.08 ЮЗ 2 н/о н/о +21.6 +14.6 64 +25 +25 комфорт 1017.3 949.6 0.0
13 19.08 ЮЗ 2 н/о н/о +21.7 +14.6 64 +25 +25 комфорт 1017.6 949.9
14 19.08 СЗ 1 н/о н/о +21.9 +15.0 65 +25 +25 комфорт 1017.7 950.0
15 19.08 З 1 н/о н/о +21.6 +14.7 65 +25 +25 комфорт 1017.5 949.8
16 19.08 Ю 1 н/о н/о +21.2 +15.0 68 +24 +24 комфорт 1017.5 949.7
17 19.08 ЮВ 1 н/о н/о +20.9 +14.9 69 +25 +25 комфорт 1017.5 949.6
18 19.08 штиль 0 н/о н/о +20.1 +15.0 72 +22 +22 комфорт 1018.0 949.9 +17.6 +22.8 0.0
19 19.08 штиль 0 н/о н/о +18.6 +14.8 79 +19 +19 1018.9 950.4
20 19.08 штиль 0 н/о н/о +17.6 +14.7 83 +18 +18 1019.7 950.9
21 19.08 штиль 0 н/о н/о +16.8 +14.8 88 +17 +17 1020.1 951.1
22 19.08 штиль 0 н/о н/о +15.8 +14.5 92 +16 +16 1020.2 951.0
23 19.08 штиль 0 н/о н/о +15.9 +14.4 91 +16 +16 1020.3 951.1
00 20.08 СЗ 1 н/о н/о +15.5 +14.2 92 +16 +16 1020.5 951.2
01 20.08 Ю 1 н/о н/о +15.0 +13.9 93 +15 +15 1020.1 950.7
02 20.08 ЮВ 1 н/о н/о +15.6 +14.3 92 +16 +16 1019.7 950.5
03 20.08 З 1 н/о н/о +16.0 +14.5 91 +17 +17 1020.3 951.1
04 20.08 штиль 0 н/о н/о +15.4 +14.2 93 +15 +15 1020.6 951.3
05 20.08 В 1 н/о н/о +15.0 +14.0 94 +15 +15 1021.0 951.5
06 20.08 Ю 1 н/о н/о +16.7 +14.9 89 +18 +18 1020.3 951.3 +14.7 +20.5
07 20.08 СЗ 1 н/о н/о +18.4 +15.5 83 +20 +20 1019.7 951.1
08 20.08 СЗ 2 н/о н/о +19.8 +16.1 79 +23 +23 комфорт 1019.6 951.4
09 20.08 ЮЗ 1 н/о н/о +20.8 +16.6 77 +25 +25 комфорт 1019.4 951.4
10 20.08 ЮВ 1 н/о н/о +22.4 +16.3 68 +27 +27 душно 1018.6 951.0
11 20.08 СВ 1 н/о н/о +23.2 +15.9 64 +28 +28 душно 1018.1 950.7
12 20.08 С 2 н/о н/о +23.4 +16.1 64 +28 +28 душно 1018.0 950.7
13 20.08 Ю 1 н/о н/о +23.0 +15.6 63 +27 +27 душно 1017.8 950.4 0.0
14 20.08 С 2 н/о н/о +22.2 +16.7 71 +27 +27 душно 1017.1 949.6 0.0
15 20.08 С 2 н/о н/о +22.4 +17.0 72 +27 +27 душно 1017.4 949.9 0.0
16 20.08 СВ 2 н/о н/о +22.2 +16.7 71 +27 +27 душно 1017.1 949.6
17 20.08 С 3 н/о н/о +21.5 +16.4 73 +25 +25 комфорт 1017.3 949.6
18 20.08 С 2 н/о н/о +21.1 +15.6 71 +24 +24 комфорт 1017.7 949.9 +16.4 +23.6 0.0
19 20.08 С 3 н/о н/о +20.4 +15.5 73 +23 +23 комфорт 1018.3 950.3 0.0
20 20.08 СЗ 2 н/о н/о +19.3 +16.4 83 +22 +22 комфорт 1018.7 950.4 0.0
21 20.08 СЗ 1 н/о н/о +17.5 +17.1 98 +19 +19 1020.4 951.6 15
22 20.08 С 3 н/о ливневой дождь {осадки} н/о +15.4 +13.9 91 +15 +15 1022.5 953.0 0.4
23 20.08 С 3 н/о в посл. час осадки н/о +14.2 +12.6 90 +13 +13 1024.1 954.2 0.3
00 21.08 З 2 н/о осадки {ливн. осадки} н/о +13.9 +13.5 97 +13 +13 1025.2 955.2 17
01 21.08 СЗ 1 н/о в посл. час осадки н/о +13.4 +12.9 97 +13 +13 1025.9 955.7 3
02 21.08 СЗ 1 н/о осадки н/о +13.1 +12.5 96 +13 +13 1027.0 956.6 0.5
03 21.08 СЗ 1 н/о осадки {ливн. осадки} н/о +13.0 +12.6 97 +13 +13 1027.4 957.0 6
04 21.08 З 2 н/о осадки н/о +12.8 +12.4 97 +12 +12 1028.0 957.5 0.9
05 21.08 СЗ 1 н/о осадки н/о +12.9 +12.5 97 +13 +13 1028.5 958.0 2
06 21.08 штиль 0 н/о осадки {ливн. осадки} н/о +13.1 +12.6 97 +13 +13 1028.7 958.2 +12.7 +21.1 26
07 21.08 ЮВ 1 н/о в посл. час осадки н/о +13.3 +12.4 94 +13 +13 1029.2 958.7 0.2
08 21.08 С 1 н/о н/о +13.3 +11.6 89 +13 +13 1029.4 958.9 0.0
09 21.08 С 1 н/о в посл. час осадки н/о +14.1 +12.0 87 +14 +14 1028.9 958.6 0.3
10 21.08 СВ 1 н/о н/о +14.7 +11.5 81 +15 +15 1028.9 958.8
11 21.08 С 1 н/о н/о +16.3 +11.6 74 +17 +17 1028.3 958.6
12 21.08 штиль 0 н/о {ливн. осадки} н/о +17.0 +11.2 69 +17 +17 1027.6 958.1 0.3
13 21.08 ЮВ 1 н/о н/о +17.7 +10.9 64 +19 +19 1027.4 958.0 0.0
14 21.08 Ю 2 н/о н/о +16.9 +12.8 77 +17 +17 1027.5 958.0
15 21.08 Ю 2 н/о н/о +17.3 +13.2 77 +18 +18 1027.3 957.9 0.0
16 21.08 Ю 2 н/о н/о +16.5 +13.0 80 +17 +17 1027.5 957.9
17 21.08 Ю 2 н/о н/о +16.5 +13.1 80 +17 +17 1027.3 957.7
18 21.08 Ю 2 н/о н/о +15.4 +12.8 84 +15 +15 1027.7 957.8 +13.0 +17.8 0.3
19 21.08 Ю 1 н/о н/о +14.0 +12.3 89 +14 +14 1028.1 957.9
20 21.08 штиль 0 н/о н/о +13.2 +12.0 92 +13 +13 1028.7 958.2
21 21.08 штиль 0 н/о н/о +12.8 +12.0 95 +12 +12 1028.4 957.9
22 21.08 штиль 0 н/о н/о +12.0 +11.5 97 +11 +11 1028.6 957.8
23 21.08 СВ 2 н/о н/о +12.5 +11.3 92 +12 +12 1028.3 957.7
00 22.08 СВ 2 н/о н/о +12.2 +11.2 94 +11 +11 1028.1 957.4
01 22.08 СВ 2 н/о н/о +12.8 +10.7 87 +12 +12 1027.1 956.6
02 22.08 СВ 1 н/о н/о +12.6 +10.5 87 +13 +13 1027.0 956.5
03 22.08 СВ 1 н/о н/о +13.2 +10.2 82 +13 +13 1026.8 956.4
04 22.08 В 1 н/о н/о +13.2 +10.6 84 +13 +13 1026.1 955.8
05 22.08 ЮВ 1 н/о н/о +13.2 +10.8 85 +13 +13 1026.2 955.9
06 22.08 В 2 н/о н/о +13.8 +10.5 80 +13 +13 1026.4 956.2 +11.7 +15.7
07 22.08 В 2 н/о н/о +14.5 +10.9 79 +14 +14 1025.9 955.9
08 22.08 СВ 2 н/о н/о +15.9 +11.3 74 +16 +16 1025.4 955.8
09 22.08 В 2 н/о н/о +16.7 +11.2 70 +17 +17 1025.2 955.8
10 22.08 СВ 1 н/о н/о +18.6 +12.1 66 +20 +20 1024.9 955.9
11 22.08 СВ 2 н/о н/о +17.9 +11.7 67 +18 +18 1025.1 956.0
12 22.08 СВ 2 н/о н/о +19.1 +11.7 62 +21 +21 комфорт 1024.5 955.7
13 22.08 В 3 н/о н/о +20.2 +12.0 59 +22 +22 комфорт 1024.0 955.5
14 22.08 В 2 н/о н/о +20.4 +12.1 59 +23 +23 комфорт 1023.8 955.3
15 22.08 В 2 н/о н/о +20.1 +12.4 61 +23 +23 комфорт 1023.8 955.3
16 22.08 В 1 н/о н/о +19.7 +12.6 64 +22 +22 комфорт 1023.8 955.2
17 22.08 В 2 н/о н/о +19.7 +12.5 63 +22 +22 комфорт 1023.7 955.1
18 22.08 В 1 н/о н/о +18.8 +12.5 67 +21 +21 комфорт 1024.4 955.5 +13.7 +21.3
19 22.08 СВ 1 н/о н/о +18.3 +13.0 71 +20 +20 1025.4 956.4
20 22.08 СВ 1 н/о н/о +17.9 +13.2 74 +19 +19 1025.7 956.6
21 22.08 СВ 1 н/о н/о +17.4 +13.3 77 +18 +18 1025.8 956.5
22 22.08 СВ 1 н/о н/о +17.3 +13.2 77 +18 +18 1025.7 956.4
23 22.08 СВ 1 н/о н/о +17.0 +13.4 79 +18 +18 1025.7 956.4

 

Местоположение метеостанции Рорбах (Австрия): широта 48.57 долгота 14.00 высота над уровнем моря 602 м.

В архиве по умолчанию представлена погода в Рорбахе за последнюю неделю. Архивные данные за месяц целиком и за предыдущие месяцы, начиная с января 2011 года, Вы можете получить, выбрав интересующий диапазон дат из раскрывающегося списка и нажав кнопку "Ввод!".


*Определитесь, кто Вы:
робот инопланетянин человек

Внимание! Время в таблицах - всемирное. Для получения местного времени необходимо прибавить поправку, которая равна 1 ч.

Смотрите также архив погоды в соседних городах и на ближайших метеорологических станциях:

Погода в Линце город (Австрия) (36 км)
Погода в Линце (Австрия) (40 км)
Погода в Шердинге (Австрия) (43 км)
Погода в Вельс / Шлайсхайм (Австрия) (45 км)
Погода в Фюрстенцелле (Германия) (48 км)
Погода в Ческе-Будеёвице (Чехия) (55 км)
Погода в Рид-им-Иннкрайсе (Австрия) (55 км)
Погода в Вольфсегг-ам-Хаусрукке (Австрия) (58 км)
Погода в Кремсмюнстере (Австрия) (59 км)
Погода в Чуранове (Чехия) (62 км)

Пояснения к столбцам:

Ветер - указаны скорость ветра в м/с - средняя за 10 мин, порывы в срок и между сроками (в фигурных скобках) и направление, откуда дует ветер: С - северный, СВ - северо-восточный, В - восточный, ЮВ - юго-восточный, Ю - южный, ЮЗ - юго-западный, З - западный, СЗ - северо-западный.
Видимость - горизонтальная дальность видимости в метрах или километрах. При видимости от 1 до 10 км при отсутствии осадков обычно наблюдается дымка, при ухудшении видимости до 1 км и менее - туман. В сухую погоду видимость может ухудшаться дымом, пылью или мглою.
Явления - указаны атмосферные явления, наблюдавшиеся в срок или в последний час перед сроком; фигурными скобками обозначены явления, наблюдавшиеся между сроками (за 1-3 часа до срока); квадратными скобками обозначены град или гололедные отложения с указанием их диаметра в мм.
Облачность - указаны через наклонную черту общая и нижняя облачность в баллах и высота нижней границы облаков в метрах; квадратными скобками обозначены формы облаков: Ci - перистые, Cs - перисто-слоистые, Cc - перисто-кучевые, Ac - высококучевые, As - высокослоистые, Sc - слоисто-кучевые, Ns - слоисто-дождевые, Cu - кучевые, Cb - кучево-дождевые. Подробнее классификацию облаков см. в Атласе облаков (PDF).
T - Температура воздуха - температура, измеренная на высоте 2 м над землей.
Td - Температура точки росы - температура, при понижении до которой содержащийся в воздухе водяной пар достигнет насыщения.
f - Относительная влажность воздуха - влажноcть воздуха, измеренная на высоте 2 м над землей.
Te - Эффективная температура - температура, которую ощущает одетый по сезону человек в тени. Характеристика душности погоды. При расчете учитывается влияние влажности воздуха и скорости ветра на теплоощущения человека.
Tes - Эффективная температура на солнце - температура, которую ощущает человек, с поправкой на солнечный нагрев. Характеристика знойности погоды. Зависит от высоты солнца над горизонтом, облачности и скорости ветра. Ночью, в пасмурную погоду, а также при ветре 12 м/с и более поправка равна нулю.
P - Атмосферное давление - приведенное к уровню моря атмосферное давление.
Po - Атмосферное давление - измеренное на уровне метеостанции атмосферное давление.
Tmin - Минимальная температура - минимум температуры воздуха на высоте 2 м над землей.
Tmax - Максимальная температура - максимум температуры воздуха на высоте 2 м над землей.
R - Количество осадков - Количество выпавших осадков за период времени, мм. При наведении курсора мыши на число - период времени, за который выпало указанное количество осадков.
R24 - Количество осадков - Количество выпавших осадков за 24 часа, мм.
S - Снежный покров - Высота снежного покрова, см. При наведении курсора мыши на число - состояние снежного покрова и степень покрытия местности в баллах.